Regional Weather Roundup
Issued by NWS

Home | Current Version | Previous Version | Text Only | Print | Product List | Glossary Off
Versions: 1 2 3 4 5 6 7 8 9 10 11 12 13 14 15 16 17 18 19 20 21 22 23 24 25 26 27 28 29 30 31 32 33 34 35 36 37 38 39 40 41 42 43 44 45 46 47 48 49 50

000
ASUS43 KMPX 231101
RWRMN
WEATHER ROUNDUP FOR MINNESOTA
NATIONAL WEATHER SERVICE TWIN CITIES/CHANHASSEN MN
600 AM CDT TUE SEP 23 2014


NOTE: "FAIR" INDICATES FEW OR NO CLOUDS BELOW 12,000 FEET WITH NO
SIGNIFICANT WEATHER AND/OR OBSTRUCTIONS TO VISIBILITY. N/A MEANS
CURRENT SKY AND/OR WEATHER CONDITIONS ARE NOT AVAILABLE.

MNZ060>063-068>070-231200-
   Twin Cities Metro

CITY           SKY/WX    TMP DP  RH WIND       PRES   REMARKS
TWIN CITIES    CLEAR     52  48  86 E5        30.20R
ST PAUL        CLEAR     50  49  96 SE3       30.21R
CRYSTAL        CLEAR     49  46  90 CALM      30.18S
BLAINE         CLEAR     48  48 100 S5        30.19S
LAKEVILLE      CLEAR     48  46  93 S3        30.20S
EDEN PRAIRIE   CLEAR     52  48  86 S7        30.19R
SOUTH ST PAUL  CLEAR     49  48  94 CALM      30.20S
LAKE ELMO        N/A     43  43 100 CALM      30.21S
$$
MNZ001>005-007-008-013>017-022>024-027-028-231200-
   Northwest Minnesota

CITY           SKY/WX    TMP DP  RH WIND       PRES   REMARKS
BEMIDJI        CLEAR     44  44  99 CALM      30.12S FOG
HALLOCK        CLEAR     52  48  87 SE8       30.02S
ROSEAU         CLEAR     50  45  81 S7        30.06S
WARROAD        CLEAR     52  46  82 S5        30.07S
THIEF RVR FALL CLEAR     52  46  82 SE8       30.06R
CROOKSTON      CLEAR     52  48  87 SE8       30.05R
FOSSTON        CLEAR     50  46  87 CALM      30.08S
DETROIT LAKES  CLEAR     54  50  87 SE6       30.10S
MOORHEAD       CLEAR     57  52  82 S12       30.06R
PARK RAPIDS    CLEAR     49  46  90 SE7       30.12S
MAHNOMEN       FAIR      52  48  87 SE7       30.07S
$$
MNZ006-009>011-018-025>026-231200-
   North Central Minnesota

CITY           SKY/WX    TMP DP  RH WIND       PRES   REMARKS
BAUDETTE       CLEAR     48  46  93 SE3       30.08S
FLAG ISLAND    CLEAR     57  54  88 SE8       30.06S
INTL FALLS     CLEAR     42  42 100 SE5       30.12S
WASKISH        CLEAR     52  48  87 CALM      30.10S
BIG FORK       CLEAR     39  37  93 CALM      30.14S
LONGVILLE      CLEAR     39  37  93 CALM      30.15R
GRAND RAPIDS   CLEAR     45  41  87 S5        30.15S
CRANE LAKE     CLEAR     37  37 100 CALM      30.17R
ORR            CLEAR     46  45  93 CALM      30.13S
COOK           CLEAR     39  39 100 CALM      30.16S
WALKER         FAIR      48  47  95 CALM      30.13R
$$
MNZ012-019>021-037-231200-
   Northeast Minnesota

CITY           SKY/WX    TMP DP  RH WIND       PRES   REMARKS
DULUTH         CLEAR     51  46  83 CALM      30.18R
ELY            CLEAR     41  39  93 CALM      30.17R
HIBBING        FOG       38  36  92 CALM      30.17R VSB 1/4
EVELETH        FOG       36  36 100 CALM      30.18S VSB 1/2
DULUTH HARBOR  CLEAR     52  48  87 S5        30.18R
TWO HARBORS    CLEAR     45  41  87 CALM      30.16R
SILVER BAY     CLEAR     46  46 100 SW3       30.16R
GRAND MARAIS     N/A     51  49  92 VRB3      30.14R
G MARAIS ARPRT CLEAR     52  45  76 CALM      30.18R
$$
MNZ029>031-032-039>041-046>048-054>057-064-231200-
   West Central Minnesota

CITY           SKY/WX    TMP DP  RH WIND       PRES   REMARKS
FERGUS FALLS   CLEAR     55  46  71 SE9       30.09S
WHEATON        CLEAR     48  46  93 SE9       30.09R
MORRIS         CLEAR     50  46  87 SE8       30.09S
ALEXANDRIA     CLEAR     52  47  83 SE8       30.13S
ELBOW LAKE     FAIR      52  48  86 SE9       30.09S
WADENA         CLEAR     46  45  93 CALM      30.12S
GLENWOOD       CLEAR     50  46  87 SE7       30.13S
APPLETON       CLEAR     52  46  82 SE6       30.09F
BENSON         CLEAR     50  46  87 S7        30.12S
ORTONVILLE     CLEAR     50  46  87 SE5       30.08F
MADISON        PTCLDY    54  50  87 S7        30.10R
WILLMAR        FAIR      50  46  87 SE8       30.16R
$$
MNZ033>034-036-042>043-049>051-058-059-231200-
   Central Minnesota

CITY           SKY/WX    TMP DP  RH WIND       PRES   REMARKS
ST CLOUD       CLEAR     47  45  93 CALM      30.17S
SAUK CENTRE    FAIR      47  45  93 SE3       30.14S
PAYNESVILLE    CLEAR     49  47  93 E7        30.16S
AITKIN           N/A     43  37  81 CALM      30.15S HAZE
PINE RIVER     FOG       43  43 100 CALM      30.18R VSB 1/2
BRAINERD       CLEAR     45  44  97 CALM      30.16S
STAPLES        CLEAR     45  45 100 CALM      30.14R
LONG PRAIRIE     N/A     45  45 100 CALM      30.15S
LITTLE FALLS   CLEAR     43  43 100 CALM      30.16S
LITCHFIELD     CLEAR     52  50  93 CALM      30.16F
BUFFALO        CLEAR     51  47  87 CALM      30.19R
MAPLE LAKE     CLEAR     50  49  97 CALM      30.19R
$$
MNZ037-044-045-052-053-231200-
   East Central Minnesota

CITY           SKY/WX    TMP DP  RH WIND       PRES   REMARKS
PRINCETON      MOCLDY    46  45  93 E2        30.18S VSB 1/4
MORA           CLEAR     39  39 100 CALM      30.20S
CAMBRIDGE      CLEAR     52  45  76 CALM      30.17S
RUSH CITY      FOG       44  43  97 CALM      30.19S VSB 1
MOOSE LAKE     FOG       39  37  93 CALM      30.17R VSB 1/2
HINCKLEY       FOG       39  39 100 CALM      30.19R VSB 3/4
CLOQUET        CLEAR     46  43  87 S1        30.17S
MCGREGOR       CLEAR     46  45  93 CALM      30.17S
$$
MNZ071>073-080-081-089-090-097-098-231200-
   Southwest Minnesota

CITY           SKY/WX    TMP DP  RH WIND       PRES   REMARKS
MONTEVIDEO     CLEAR     52  48  87 S6        30.13R
GRANITE FALLS  CLEAR     49  47  91 SE6       30.14S
CANBY          PTCLDY    48  46  95 SE5       30.11S
MARSHALL       PTCLDY    55  46  71 S12       30.11R
REDWOOD FALLS  CLEAR     48  45  89 SE8       30.15S
OLIVIA         CLEAR     50  45  81 SE6       30.14S
PIPESTONE      CLOUDY    52  48  87 SE5       30.13S
WINDOM         MOCLDY    52  48  87 SE6       30.17R
WORTHINGTON    MOCLDY    54  46  76 S7        30.16S
JACKSON        MOCLDY    52  46  82 S6        30.18S
TRACY          MOCLDY    55  48  80 S12       30.13S
SLAYTON        MOCLDY    47  46  96 CALM      30.15S
$$
MNZ065>067-074>077-082>085-091>093-231200-
   South Central Minnesota

CITY           SKY/WX    TMP DP  RH WIND       PRES   REMARKS
MANKATO        CLEAR     52  43  71 S8        30.19S
NEW ULM        CLEAR     48  46  93 SE7       30.17S
ST JAMES       PTCLDY    46  45  93 SE3       30.19R
FAIRMONT       PTCLDY    46  43  87 S7        30.19S
GLENCOE        CLEAR     49  45  85 SE5       30.17F
FARIBAULT      CLEAR     45  39  81 SE3       30.21S
OWATONNA       CLEAR     52  46  82 SE7       30.21S
WASECA         CLEAR     46  41  81 CALM      30.23R
ALBERT LEA     CLEAR     52  48  87 CALM      30.22R
$$
MNZ078>079-086>088-094>096-231200-
   Southeast Minnesota

CITY           SKY/WX    TMP DP  RH WIND       PRES   REMARKS
ROCHESTER      CLEAR     47  45  93 S7        30.24R
RED WING       CLEAR     46  46 100 E3        30.21S
STANTON        CLEAR     49  45  87 S3        30.20R
DODGE CENTER   CLEAR     46  46 100 S5        30.23R
WINONA         FOG       52  50  93 CALM      30.24S VSB 1/4
AUSTIN         CLEAR     45  43  93 CALM      30.23S
PRESTON        CLEAR     47  47 100 SW7       30.25S
$$
ABBREVIATIONS USED IN REMARKS
   TC - TEMPERATURES IN CELSIUS
  WCI - WIND CHILL INDEX
   HX - HEAT INDEX
  VSB - VISIBILITY
$$



USA.gov is the U.S. government's official web portal to all federal, state and local government web resources and services.